K6FW Weather Reports


Display with metric or nautical units.
time (UTC)temp
F
wind
direction
speed
MPH
gust
MPH
rain 1hr
in
rain 24hr
in
rain mn
in
humidity
%
barometer
mb
20260507024817 68 0 4.0 9.0 0.00 0.00 0.00 63 1016.2
20260507024604 67 275 5.0 10.0 0.00 0.00 0.00 62 1016.1
20260507023757 68 0 5.0 12.0 0.00 0.00 0.00 62 1016.1
20260507023113 68 215 6.0 14.0 0.00 0.00 0.00 61 1015.9
20260507021557 69 207 6.0 12.0 0.00 0.00 0.00 60 1015.8
20260507020456 70 0 5.0 12.0 0.00 0.00 0.00 59 1015.7
20260507020059 70 193 6.0 14.0 0.00 0.00 0.00 58 1015.7
20260507014607 71 360 4.0 11.0 0.00 0.00 0.00 57 1015.6
20260507014331 72 215 5.0 10.0 0.00 0.00 0.00 56 1015.5
20260507013305 73 280 5.0 11.0 0.00 0.00 0.00 55 1015.5
20260507013114 72 217 4.0 12.0 0.00 0.00 0.00 55 1015.5
20260507012317 73 211 5.0 12.0 0.00 0.00 0.00 54 1015.4
20260507011559 73 279 5.0 13.0 0.00 0.00 0.00 54 1015.4
20260507011301 74 0 6.0 12.0 0.00 0.00 0.00 53 1015.4
20260507010316 74 0 6.0 11.0 0.00 0.00 0.00 52 1015.2
20260507010057 74 185 7.0 14.0 0.00 0.00 0.00 52 1015.3
20260507004559 74 284 5.0 13.0 0.00 0.00 0.00 52 1015.2
20260507004202 75 263 6.0 12.0 0.00 0.00 0.00 52 1015.2
20260507003205 75 202 6.0 15.0 0.00 0.00 0.00 52 1015.1
20260507003057 74 180 7.0 15.0 0.00 0.00 0.00 52 1015.2
20260507002201 75 251 9.0 15.0 0.00 0.00 0.00 52 1015.1
20260507001623 75 278 10.0 15.0 0.00 0.00 0.00 51 1015.1
20260507001156 75 217 8.0 16.0 0.00 0.00 0.00 51 1015.1
20260507000220 76 217 7.0 16.0 0.00 0.00 0.00 51 1015.0
20260506235214 76 214 6.0 11.0 0.00 0.00 0.00 51 1014.9
20260506234559 76 192 7.0 15.0 0.00 0.00 0.00 50 1014.9
20260506234159 76 215 6.0 11.0 0.00 0.00 0.00 51 1014.8
20260506233152 77 229 7.0 12.0 0.00 0.00 0.00 50 1014.8
20260506233109 76 215 7.0 16.0 0.00 0.00 0.00 50 1014.9
20260506232157 76 184 6.0 12.0 0.00 0.00 0.00 49 1014.9
20260506231604 76 192 6.0 15.0 0.00 0.00 0.00 50 1015.0
20260506231145 77 192 8.0 14.0 0.00 0.00 0.00 49 1015.0
20260506230203 77 175 7.0 14.0 0.00 0.00 0.00 49 1014.9
20260506230058 77 175 8.0 15.0 0.00 0.00 0.00 48 1014.9
20260506225147 78 273 6.0 13.0 0.00 0.00 0.00 48 1015.0
20260506224604 78 277 8.0 14.0 0.00 0.00 0.00 48 1015.0
20260506224156 79 282 4.0 14.0 0.00 0.00 0.00 46 1015.1
20260506223125 79 296 6.0 15.0 0.00 0.00 0.00 45 1015.3
20260506221603 78 336 7.0 14.0 0.00 0.00 0.00 45 1015.4
20260506220056 78 319 5.0 14.0 0.00 0.00 0.00 45 1015.6
20260506215721 78 208 4.0 13.0 0.00 0.00 0.00 46 1015.8
20260506214705 78 230 4.0 11.0 0.00 0.00 0.00 46 1015.9
20260506214608 77 360 5.0 12.0 0.00 0.00 0.00 46 1015.9
20260506213107 77 281 8.0 18.0 0.00 0.00 0.00 46 1016.1
20260506212516 77 285 5.0 14.0 0.00 0.00 0.00 47 1016.3
20260506211557 76 329 7.0 15.0 0.00 0.00 0.00 48 1016.2
20260506211525 77 302 4.0 14.0 0.00 0.00 0.00 48 1016.2
20260506210535 77 326 6.0 14.0 0.00 0.00 0.00 47 1016.4
20260506210118 76 289 8.0 16.0 0.00 0.00 0.00 47 1016.4
20260506205501 77 270 4.0 14.0 0.00 0.00 0.00 48 1016.5
20260506204556 76 350 6.0 13.0 0.00 0.00 0.00 50 1016.5
20260506203307 75 304 4.0 12.0 0.00 0.00 0.00 51 1016.7
20260506203101 75 294 6.0 12.0 0.00 0.00 0.00 49 1016.7
20260506201602 74 360 7.0 14.0 0.00 0.00 0.00 50 1016.8
20260506201114 74 212 2.0 9.0 0.00 0.00 0.00 51 1016.8
20260506200143 74 267 4.0 11.0 0.00 0.00 0.00 50 1017.0
20260506200126 74 275 4.0 9.0 0.00 0.00 0.00 50 1016.9
20260506195135 73 5 2.0 7.0 0.00 0.00 0.00 52 1017.1
20260506194615 72 211 3.0 8.0 0.00 0.00 0.00 53 1017.3
20260506194200 73 178 3.0 6.0 0.00 0.00 0.00 51 1017.3
20260506193204 72 328 1.0 9.0 0.00 0.00 0.00 53 1017.4
20260506193059 72 285 2.0 6.0 0.00 0.00 0.00 53 1017.4
20260506192137 72 315 2.0 3.0 0.00 0.00 0.00 55 1017.4
20260506191556 70 0 2.0 10.0 0.00 0.00 0.00 53 1017.5
20260506191114 72 219 3.0 9.0 0.00 0.00 0.00 53 1017.6
20260506190122 72 0 2.0 6.0 0.00 0.00 0.00 52 1017.7
20260506190058 72 279 3.0 7.0 0.00 0.00 0.00 54 1017.7
20260506185059 71 0 2.0 6.0 0.00 0.00 0.00 53 1017.8
20260506184558 69 340 2.0 7.0 0.00 0.00 0.00 56 1017.8
20260506184053 70 298 1.0 6.0 0.00 0.00 0.00 55 1017.9
20260506183058 70 72 1.0 4.0 0.00 0.00 0.00 54 1018.0
20260506181944 68 286 2.0 4.0 0.00 0.00 0.00 55 1018.0
20260506181559 69 288 2.0 8.0 0.00 0.00 0.00 56 1018.2
20260506180916 69 273 3.0 6.0 0.00 0.00 0.00 56 1018.1
20260506180105 68 275 2.0 8.0 0.00 0.00 0.00 59 1018.4
20260506174759 69 0 1.0 5.0 0.00 0.00 0.00 58 1018.4
20260506174558 68 360 0.0 7.0 0.00 0.00 0.00 58 1018.5
20260506173725 67 321 1.0 5.0 0.00 0.00 0.00 59 1018.4
20260506173123 66 287 0.0 5.0 0.00 0.00 0.00 62 1018.5
20260506171635 64 184 1.0 7.0 0.00 0.00 0.00 65 1018.5
20260506171603 63 184 2.0 8.0 0.00 0.00 0.00 65 1018.5
20260506170619 63 15 1.0 3.0 0.00 0.00 0.00 63 1018.6
20260506170059 62 57 2.0 4.0 0.00 0.00 0.00 64 1018.7
20260506165640 62 56 1.0 3.0 0.00 0.00 0.00 64 1018.7
20260506164629 64 202 1.0 3.0 0.00 0.00 0.00 64 1018.6
20260506164558 63 205 1.0 4.0 0.00 0.00 0.00 65 1018.6
20260506163617 62 211 1.0 2.0 0.00 0.00 0.00 67 1018.7
20260506163109 60 0 1.0 5.0 0.00 0.00 0.00 68 1018.7
20260506162603 61 179 1.0 5.0 0.00 0.00 0.00 71 1018.7
20260506161559 60 143 0.0 6.0 0.00 0.00 0.00 73 1018.7
20260506161539 61 143 1.0 5.0 0.00 0.00 0.00 73 1018.7
20260506160508 61 165 0.0 1.0 0.00 0.00 0.00 74 1018.7
20260506160108 59 0 0.0 4.0 0.00 0.00 0.00 75 1018.7
20260506155527 59 184 1.0 3.0 0.00 0.00 0.00 76 1018.7
20260506154600 58 192 1.0 3.0 0.00 0.00 0.00 77 1018.7
20260506154522 58 192 0.0 1.0 0.00 0.00 0.00 77 1018.8
20260506153534 58 189 0.0 0.0 0.00 0.00 0.00 78 1018.8
20260506153103 57 0 0.0 0.0 0.00 0.00 0.00 79 1018.8
20260506152543 57 189 0.0 0.0 0.00 0.00 0.00 80 1018.8
20260506151558 56 190 0.0 4.0 0.00 0.00 0.00 80 1018.8
20260506150438 56 192 0.0 0.0 0.00 0.00 0.00 83 1018.8
20260506150104 56 0 0.0 2.0 0.00 0.00 0.00 83 1018.8
20260506144601 54 0 0.0 2.0 0.00 0.00 0.00 87 1018.8
20260506144308 55 192 0.0 1.0 0.00 0.00 0.00 88 1018.8
20260506143311 53 279 0.0 0.0 0.00 0.00 0.00 89 1018.8
20260506143058 53 0 0.0 0.0 0.00 0.00 0.00 89 1018.7
20260506142254 53 279 0.0 0.0 0.00 0.00 0.00 90 1018.6
20260506141559 53 0 0.0 0.0 0.00 0.00 0.00 91 1018.7
20260506141317 53 279 0.0 0.0 0.00 0.00 0.00 91 1018.7
20260506140246 52 279 0.0 0.0 0.00 0.00 0.00 91 1018.6
20260506140100 52 0 0.0 0.0 0.00 0.00 0.00 91 1018.7
20260506135245 52 279 0.0 0.0 0.00 0.00 0.00 91 1018.6
20260506134618 51 0 0.0 0.0 0.00 0.00 0.00 92 1018.5
20260506134234 51 279 0.0 0.0 0.00 0.00 0.00 91 1018.5
20260506133251 50 279 0.0 0.0 0.00 0.00 0.00 91 1018.4
20260506133059 50 0 0.0 0.0 0.00 0.00 0.00 91 1018.3
20260506131612 49 0 0.0 0.0 0.00 0.00 0.00 91 1018.1
20260506131048 49 279 0.0 0.0 0.00 0.00 0.00 91 1018.0
20260506130057 49 0 0.0 0.0 0.00 0.00 0.00 91 1018.0
20260506130032 49 279 0.0 0.0 0.00 0.00 0.00 91 1017.9
20260506125053 49 279 0.0 0.0 0.00 0.00 0.00 91 1017.8
20260506124557 49 0 0.0 0.0 0.00 0.01 0.00 91 1017.9
20260506124029 49 279 0.0 0.0 0.00 0.00 0.00 91 1017.9
20260506123058 49 0 0.0 0.0 0.00 0.01 0.00 91 1017.8
20260506123030 50 279 0.0 0.0 0.00 0.00 0.00 90 1017.8
20260506122008 50 279 0.0 0.0 0.00 0.00 0.00 91 1017.7
20260506121607 49 0 0.0 0.0 0.00 0.01 0.00 90 1017.7
20260506115925 50 279 0.0 0.0 0.00 0.01 0.00 90 1017.5
20260506114938 50 279 0.0 0.0 0.00 0.01 0.00 90 1017.4
20260506114558 50 0 0.0 0.0 0.00 0.03 0.00 90 1017.5
20260506113953 50 279 0.0 0.0 0.00 0.01 0.00 90 1017.5
20260506113057 50 0 0.0 0.0 0.00 0.03 0.00 90 1017.5
20260506113011 50 279 0.0 0.0 0.00 0.01 0.00 90 1017.5
20260506112008 51 279 0.0 0.0 0.00 0.01 0.00 90 1017.5
20260506111618 50 0 0.0 0.0 0.00 0.03 0.00 90 1017.5
20260506111027 51 279 0.0 0.0 0.00 0.02 0.00 90 1017.4
20260506110059 51 0 0.0 0.0 0.00 0.03 0.00 89 1017.3
20260506105952 51 279 0.0 0.0 0.00 0.03 0.00 90 1017.4
20260506104920 51 279 0.0 0.0 0.00 0.04 0.00 89 1017.4
20260506104605 51 0 0.0 0.0 0.00 0.15 0.00 89 1017.4
20260506103915 52 279 0.0 0.0 0.00 0.05 0.00 89 1017.4
20260506103106 51 0 0.0 0.0 0.00 0.15 0.00 88 1017.5
20260506102907 52 279 0.0 0.0 0.00 0.07 0.00 88 1017.5
20260506101857 52 279 0.0 0.0 0.00 0.11 0.00 88 1017.4
20260506101559 52 0 0.0 0.0 0.00 0.15 0.00 89 1017.4
20260506100833 52 279 0.0 0.0 0.00 0.15 0.00 88 1017.4
20260506100103 52 0 0.0 2.0 0.00 0.15 0.00 88 1017.4
20260506095837 53 279 0.0 0.0 0.00 0.15 0.00 88 1017.5
20260506094600 52 0 0.0 0.0 0.00 0.16 0.00 88 1017.4
20260506093710 53 279 0.0 0.0 0.00 0.16 0.00 87 1017.4
20260506093101 52 0 0.0 1.0 0.00 0.16 0.00 87 1017.5
20260506091558 53 279 0.0 2.0 0.00 0.16 0.00 87 1017.5
20260506091551 53 279 0.0 0.0 0.00 0.16 0.00 87 1017.5
20260506090524 53 279 0.0 1.0 0.00 0.16 0.00 86 1017.5
20260506090057 53 279 0.0 2.0 0.00 0.16 0.00 86 1017.6
20260506085450 53 279 0.0 0.0 0.00 0.16 0.00 86 1017.6
20260506084607 53 0 0.0 3.0 0.00 0.16 0.00 85 1017.6
20260506084456 54 279 0.0 0.0 0.00 0.16 0.00 86 1017.6
20260506083442 54 279 0.0 2.0 0.00 0.16 0.00 85 1017.8
20260506083121 53 276 0.0 3.0 0.00 0.16 0.00 85 1017.8
20260506082450 54 276 1.0 2.0 0.00 0.16 0.00 85 1017.9
20260506081604 53 0 1.0 3.0 0.00 0.16 0.00 84 1018.0
20260506081449 54 276 0.0 2.0 0.00 0.16 0.00 84 1017.9
20260506080511 54 277 0.0 1.0 0.00 0.16 0.00 83 1017.9
20260506080104 54 0 0.0 6.0 0.00 0.16 0.00 83 1018.1
20260506073517 55 274 0.0 1.0 0.00 0.16 0.00 81 1017.9
20260506073057 55 0 1.0 3.0 0.00 0.16 0.00 80 1017.9
20260506071558 55 274 1.0 6.0 0.00 0.16 0.00 80 1017.9
20260506071420 55 274 0.0 3.0 0.00 0.16 0.00 80 1017.9
20260506070438 55 0 1.0 4.0 0.00 0.16 0.00 79 1017.8
20260506070121 55 360 0.0 5.0 0.00 0.16 0.00 79 1017.8
20260506062331 56 277 1.0 4.0 0.00 0.16 0.16 76 1017.3
20260506061557 56 277 2.0 5.0 0.00 0.16 0.16 76 1017.3
20260506061346 57 274 2.0 5.0 0.00 0.16 0.16 76 1017.2
20260506060318 57 0 2.0 5.0 0.00 0.16 0.16 76 1017.1
20260506051016 58 0 3.0 6.0 0.00 0.16 0.16 74 1017.0
20260506050108 57 360 2.0 6.0 0.00 0.16 0.16 73 1016.9
20260506045006 58 277 2.0 4.0 0.00 0.16 0.16 73 1016.7
20260506044558 57 360 1.0 6.0 0.00 0.16 0.16 72 1016.6
20260506043059 58 209 1.0 5.0 0.00 0.16 0.16 71 1016.5
20260506042901 58 204 2.0 5.0 0.00 0.16 0.16 70 1016.5
20260506041906 59 184 2.0 7.0 0.00 0.16 0.16 69 1016.3
20260506041603 58 214 1.0 6.0 0.00 0.16 0.16 68 1016.2
20260506040927 59 198 3.0 7.0 0.00 0.16 0.16 67 1015.9
20260506040059 59 193 2.0 6.0 0.00 0.16 0.16 65 1015.9
20260506034811 60 193 2.0 6.0 0.00 0.16 0.16 63 1015.7
20260506034601 59 193 3.0 5.0 0.00 0.16 0.16 63 1015.7
20260506033750 60 0 2.0 6.0 0.00 0.16 0.16 62 1015.5
20260506033055 60 211 2.0 5.0 0.00 0.16 0.16 62 1015.3
20260506032742 61 219 1.0 4.0 0.00 0.16 0.16 62 1015.4
20260506031751 61 277 3.0 6.0 0.00 0.16 0.16 61 1015.3
20260506031600 61 276 2.0 8.0 0.00 0.16 0.16 61 1015.2
20260506030059 61 360 4.0 10.0 0.00 0.16 0.16 60 1015.1